7T31GM LFML-LFKF

Flight info

Callsign 7T31GM
Flight time 0h 50m
Altitude 23000
Route NASIK6B NASIK P856 RAPED/N0391F170 P856 EBORA M623 VAREK VAREK2R
Aircraft RJ1H/M-SDFGIRWY/LB1

Departure

Time 2026-05-08 21:41
Airport Marseille Provence Airport (LFML)

Arrival

Time 2026-05-08 22:32
Airport Figari Sud-Corse Airport (LFKF)
Time Latitude Longitude Altitude Speed Heading
2026-05-08 21:23 43.44641 5.21715 22 ft 0 kts 325°
2026-05-08 21:30 43.44631 5.21725 22 ft 2 kts 322°
2026-05-08 21:30 43.44618 5.21740 27 ft 2 kts 318°
2026-05-08 21:30 43.44606 5.21756 24 ft 2 kts 310°
2026-05-08 21:31 43.44597 5.21775 25 ft 2 kts 290°
2026-05-08 21:31 43.44598 5.21796 26 ft 2 kts 232°
2026-05-08 21:31 43.44602 5.21803 27 ft 0 kts 216°
2026-05-08 21:35 43.44602 5.21802 27 ft 1 kts 216°
2026-05-08 21:35 43.44564 5.21766 24 ft 10 kts 214°
2026-05-08 21:36 43.44508 5.21713 25 ft 9 kts 214°
2026-05-08 21:36 43.44442 5.21671 25 ft 13 kts 198°
2026-05-08 21:36 43.44367 5.21594 25 ft 14 kts 237°
2026-05-08 21:36 43.44320 5.21478 25 ft 13 kts 241°
2026-05-08 21:37 43.44291 5.21402 25 ft 13 kts 243°
2026-05-08 21:37 43.44250 5.21299 24 ft 12 kts 241°
2026-05-08 21:37 43.44211 5.21202 23 ft 11 kts 241°
2026-05-08 21:37 43.44198 5.21099 22 ft 13 kts 296°
2026-05-08 21:38 43.44262 5.20994 19 ft 16 kts 312°
2026-05-08 21:38 43.44323 5.20850 17 ft 18 kts 303°
2026-05-08 21:38 43.44412 5.20716 17 ft 19 kts 314°
2026-05-08 21:38 43.44508 5.20579 17 ft 20 kts 314°
2026-05-08 21:39 43.44609 5.20434 17 ft 21 kts 314°
2026-05-08 21:39 43.44715 5.20285 17 ft 22 kts 314°
2026-05-08 21:39 43.44818 5.20139 17 ft 20 kts 314°
2026-05-08 21:39 43.44913 5.20004 17 ft 19 kts 314°
2026-05-08 21:40 43.44982 5.19899 17 ft 10 kts 297°
2026-05-08 21:40 43.44965 5.19818 17 ft 10 kts 221°
2026-05-08 21:40 43.44887 5.19786 19 ft 13 kts 165°
2026-05-08 21:41 43.44566 5.20229 18 ft 80 kts 134°
2026-05-08 21:41 43.44052 5.20960 21 ft 129 kts 134°
2026-05-08 21:41 43.43402 5.21883 372 ft 135 kts 134°
2026-05-08 21:41 43.42760 5.22835 909 ft 139 kts 131°
2026-05-08 21:42 43.42129 5.23840 1327 ft 138 kts 130°
2026-05-08 21:42 43.41473 5.24879 1454 ft 149 kts 132°
2026-05-08 21:42 43.40770 5.25943 1668 ft 151 kts 133°
2026-05-08 21:42 43.40049 5.27014 1833 ft 155 kts 133°
2026-05-08 21:43 43.39289 5.28116 1919 ft 162 kts 135°
2026-05-08 21:43 43.38493 5.29276 1907 ft 175 kts 129°
2026-05-08 21:43 43.38155 5.30894 1897 ft 186 kts 81°
2026-05-08 21:43 43.38806 5.32438 1945 ft 195 kts 46°
2026-05-08 21:44 43.39786 5.33748 2059 ft 197 kts 45°
2026-05-08 21:44 43.40786 5.35062 2144 ft 203 kts 45°
2026-05-08 21:44 43.41851 5.36499 2103 ft 226 kts 46°
2026-05-08 21:44 43.42876 5.38249 2198 ft 244 kts 67°
2026-05-08 21:45 43.43132 5.40589 2352 ft 255 kts 92°
2026-05-08 21:45 43.43055 5.43040 2736 ft 257 kts 94°
2026-05-08 21:45 43.42946 5.45498 3166 ft 258 kts 95°
2026-05-08 21:45 43.42803 5.47960 3583 ft 259 kts 96°
2026-05-08 21:46 43.42641 5.50425 4034 ft 259 kts 96°
2026-05-08 21:46 43.42478 5.52899 4551 ft 261 kts 96°
2026-05-08 21:46 43.42314 5.55358 5040 ft 263 kts 96°
2026-05-08 21:46 43.42160 5.57880 5518 ft 266 kts 96°
2026-05-08 21:47 43.42012 5.60436 5986 ft 270 kts 96°
2026-05-08 21:47 43.41867 5.63028 6481 ft 274 kts 96°
2026-05-08 21:47 43.41721 5.65652 6969 ft 276 kts 96°
2026-05-08 21:47 43.41577 5.68295 7462 ft 279 kts 95°
2026-05-08 21:48 43.41439 5.70970 7995 ft 282 kts 95°
2026-05-08 21:48 43.41313 5.73674 8516 ft 285 kts 92°
2026-05-08 21:48 43.41345 5.76417 9086 ft 289 kts 89°
2026-05-08 21:48 43.41457 5.79198 9697 ft 293 kts 87°
2026-05-08 21:49 43.41588 5.82012 10312 ft 296 kts 88°
2026-05-08 21:49 43.41714 5.84847 10953 ft 299 kts 88°
2026-05-08 21:49 43.41841 5.87718 11595 ft 302 kts 88°
2026-05-08 21:49 43.41957 5.90607 12243 ft 304 kts 88°
2026-05-08 21:50 43.42064 5.93529 12900 ft 307 kts 89°
2026-05-08 21:50 43.42168 5.96472 13566 ft 310 kts 89°
2026-05-08 21:50 43.42273 5.99446 14152 ft 313 kts 89°
2026-05-08 21:50 43.42376 6.02455 14677 ft 317 kts 89°
2026-05-08 21:51 43.42481 6.05500 15174 ft 321 kts 89°
2026-05-08 21:51 43.42586 6.08586 15659 ft 325 kts 89°
2026-05-08 21:51 43.42691 6.11710 16135 ft 328 kts 89°
2026-05-08 21:51 43.42794 6.14864 16583 ft 332 kts 89°
2026-05-08 21:52 43.42895 6.18050 17026 ft 335 kts 89°
2026-05-08 21:52 43.42997 6.21268 17454 ft 338 kts 89°
2026-05-08 21:52 43.43098 6.24518 17875 ft 341 kts 89°
2026-05-08 21:52 43.43121 6.27793 18275 ft 343 kts 95°
2026-05-08 21:53 43.42898 6.31072 18616 ft 346 kts 98°
2026-05-08 21:53 43.42597 6.34364 18941 ft 348 kts 99°
2026-05-08 21:53 43.42272 6.37672 19271 ft 350 kts 99°
2026-05-08 21:53 43.41936 6.40958 19582 ft 352 kts 99°
2026-05-08 21:54 43.41585 6.44345 19894 ft 354 kts 99°
2026-05-08 21:54 43.41255 6.47715 20191 ft 357 kts 99°
2026-05-08 21:54 43.40931 6.51063 20482 ft 359 kts 99°
2026-05-08 21:54 43.40607 6.54476 20772 ft 361 kts 98°
2026-05-08 21:55 43.40305 6.57914 21068 ft 363 kts 98°
2026-05-08 21:55 43.39990 6.61370 21351 ft 365 kts 98°
2026-05-08 21:55 43.39660 6.64845 21632 ft 368 kts 98°
2026-05-08 21:56 43.39021 6.71862 22201 ft 372 kts 98°
2026-05-08 21:56 43.38686 6.75396 22462 ft 374 kts 98°
2026-05-08 21:56 43.38343 6.78955 22721 ft 376 kts 98°
2026-05-08 21:56 43.38014 6.82529 22955 ft 379 kts 98°
2026-05-08 21:57 43.37691 6.86128 23044 ft 375 kts 98°
2026-05-08 21:57 43.37349 6.89711 23073 ft 383 kts 98°
2026-05-08 21:57 43.36988 6.93384 23082 ft 392 kts 99°
2026-05-08 21:57 43.36616 6.97142 23088 ft 401 kts 98°
2026-05-08 21:58 43.36256 7.00983 23094 ft 410 kts 98°
2026-05-08 21:58 43.35889 7.04902 23094 ft 416 kts 98°
2026-05-08 21:58 43.35498 7.08842 23089 ft 416 kts 99°
2026-05-08 21:58 43.35104 7.12774 23084 ft 416 kts 98°
2026-05-08 21:59 43.34729 7.16717 23077 ft 416 kts 98°
2026-05-08 21:59 43.34357 7.20662 23079 ft 416 kts 98°
2026-05-08 21:59 43.33964 7.24594 23073 ft 416 kts 99°
2026-05-08 21:59 43.33568 7.28521 23072 ft 415 kts 98°
2026-05-08 22:00 43.32963 7.32384 23071 ft 413 kts 114°
2026-05-08 22:00 43.31529 7.35766 23241 ft 410 kts 128°
2026-05-08 22:00 43.29777 7.38858 23168 ft 409 kts 135°
2026-05-08 22:00 43.27761 7.41571 23126 ft 404 kts 142°
2026-05-08 22:01 43.25584 7.43994 23107 ft 403 kts 145°
2026-05-08 22:01 43.23338 7.46296 23024 ft 403 kts 147°
2026-05-08 22:01 43.21069 7.48566 23059 ft 405 kts 147°
2026-05-08 22:01 43.18775 7.50830 23071 ft 406 kts 148°
2026-05-08 22:02 43.16481 7.53097 23068 ft 406 kts 147°
2026-05-08 22:02 43.14198 7.55386 23080 ft 406 kts 147°
2026-05-08 22:02 43.11900 7.57623 23072 ft 405 kts 150°
2026-05-08 22:02 43.09466 7.59523 23072 ft 402 kts 158°
2026-05-08 22:03 43.06918 7.61072 23076 ft 400 kts 162°
2026-05-08 22:03 43.04321 7.62432 23075 ft 400 kts 164°
2026-05-08 22:03 43.01704 7.63722 23078 ft 400 kts 165°
2026-05-08 22:03 42.99081 7.64983 23075 ft 399 kts 165°
2026-05-08 22:04 42.96455 7.66233 23075 ft 399 kts 165°
2026-05-08 22:04 42.93828 7.67478 23076 ft 400 kts 165°
2026-05-08 22:04 42.91206 7.68748 23077 ft 400 kts 164°
2026-05-08 22:04 42.88585 7.70040 23077 ft 400 kts 164°
2026-05-08 22:05 42.85971 7.71336 23074 ft 400 kts 164°
2026-05-08 22:05 42.83349 7.72643 23078 ft 400 kts 164°
2026-05-08 22:05 42.80733 7.73948 23078 ft 401 kts 164°
2026-05-08 22:05 42.78115 7.75255 23077 ft 401 kts 164°
2026-05-08 22:06 42.75487 7.76540 23080 ft 401 kts 165°
2026-05-08 22:06 42.72863 7.77812 23079 ft 401 kts 164°
2026-05-08 22:06 42.70240 7.79112 23076 ft 401 kts 164°
2026-05-08 22:06 42.67619 7.80410 23077 ft 401 kts 165°
2026-05-08 22:07 42.64989 7.81680 23082 ft 401 kts 165°
2026-05-08 22:07 42.62364 7.82962 23081 ft 401 kts 164°
2026-05-08 22:07 42.59743 7.84267 23084 ft 401 kts 164°
2026-05-08 22:07 42.57117 7.85549 23083 ft 401 kts 165°
2026-05-08 22:08 42.54486 7.86818 23081 ft 401 kts 165°
2026-05-08 22:08 42.51900 7.88061 23085 ft 401 kts 165°
2026-05-08 22:08 42.49274 7.89349 23082 ft 401 kts 164°
2026-05-08 22:08 42.46656 7.90653 23081 ft 401 kts 165°
2026-05-08 22:09 42.44029 7.91933 23079 ft 401 kts 165°
2026-05-08 22:09 42.41403 7.93201 23084 ft 401 kts 165°
2026-05-08 22:09 42.38773 7.94465 23086 ft 401 kts 165°
2026-05-08 22:09 42.36147 7.95743 23085 ft 401 kts 163°
2026-05-08 22:10 42.33675 7.97552 23089 ft 408 kts 149°
2026-05-08 22:10 42.31339 7.99734 23088 ft 409 kts 150°
2026-05-08 22:10 42.29038 8.02012 23086 ft 411 kts 144°
2026-05-08 22:10 42.26906 8.04602 23089 ft 413 kts 139°
2026-05-08 22:11 42.24901 8.07400 23086 ft 415 kts 136°
2026-05-08 22:11 42.22963 8.10288 23082 ft 416 kts 135°
2026-05-08 22:11 42.21048 8.13213 23081 ft 415 kts 135°
2026-05-08 22:11 42.19132 8.16122 23080 ft 415 kts 135°
2026-05-08 22:12 42.17208 8.19021 23080 ft 415 kts 135°
2026-05-08 22:12 42.15266 8.21897 23086 ft 415 kts 136°
2026-05-08 22:12 42.13315 8.24768 23080 ft 415 kts 136°
2026-05-08 22:12 42.11366 8.27625 23078 ft 414 kts 136°
2026-05-08 22:13 42.09418 8.30476 23077 ft 414 kts 136°
2026-05-08 22:13 42.07467 8.33324 23077 ft 414 kts 136°
2026-05-08 22:13 42.05514 8.36169 23079 ft 413 kts 136°
2026-05-08 22:13 42.03562 8.39008 23071 ft 413 kts 136°
2026-05-08 22:14 42.01609 8.41847 23076 ft 413 kts 136°
2026-05-08 22:14 41.99676 8.44706 23073 ft 414 kts 135°
2026-05-08 22:14 41.97736 8.47561 23076 ft 412 kts 136°
2026-05-08 22:14 41.95792 8.50382 23076 ft 412 kts 136°
2026-05-08 22:15 41.93836 8.53208 23076 ft 412 kts 136°
2026-05-08 22:15 41.91897 8.56040 23072 ft 412 kts 135°
2026-05-08 22:15 41.89965 8.58884 23085 ft 412 kts 135°
2026-05-08 22:15 41.88019 8.61698 23075 ft 411 kts 136°
2026-05-08 22:16 41.86063 8.64511 22779 ft 416 kts 136°
2026-05-08 22:16 41.84216 8.67194 22109 ft 413 kts 135°
2026-05-08 22:16 41.82245 8.70063 21301 ft 413 kts 135°
2026-05-08 22:16 41.80320 8.72852 20513 ft 412 kts 135°
2026-05-08 22:17 41.78368 8.75658 19747 ft 411 kts 135°
2026-05-08 22:17 41.76350 8.78366 18992 ft 408 kts 138°
2026-05-08 22:17 41.74260 8.80918 18244 ft 406 kts 140°
2026-05-08 22:17 41.72154 8.83359 17405 ft 380 kts 141°
2026-05-08 22:18 41.70163 8.85609 16571 ft 376 kts 142°
2026-05-08 22:18 41.68164 8.87867 15776 ft 377 kts 141°
2026-05-08 22:18 41.66159 8.90134 14994 ft 377 kts 141°
2026-05-08 22:18 41.64165 8.92401 14240 ft 376 kts 140°
2026-05-08 22:19 41.62314 8.94535 13444 ft 335 kts 140°
2026-05-08 22:19 41.60534 8.96593 12598 ft 341 kts 140°
2026-05-08 22:19 41.58725 8.98673 11771 ft 344 kts 140°
2026-05-08 22:19 41.56904 9.00755 10990 ft 340 kts 140°
2026-05-08 22:20 41.55212 9.02687 10337 ft 314 kts 140°
2026-05-08 22:20 41.53629 9.04495 9791 ft 292 kts 140°
2026-05-08 22:20 41.52068 9.06270 9216 ft 297 kts 140°
2026-05-08 22:20 41.50564 9.08125 8769 ft 293 kts 128°
2026-05-08 22:21 41.49751 9.10583 8383 ft 291 kts 102°
2026-05-08 22:21 41.49427 9.13235 8024 ft 289 kts 99°
2026-05-08 22:21 41.49137 9.15883 7676 ft 287 kts 98°
2026-05-08 22:21 41.48877 9.18513 7335 ft 285 kts 97°
2026-05-08 22:22 41.48632 9.21123 6997 ft 283 kts 98°
2026-05-08 22:22 41.48377 9.23710 6664 ft 280 kts 98°
2026-05-08 22:22 41.48199 9.25417 6436 ft 279 kts 98°
2026-05-08 22:22 41.47914 9.27965 6084 ft 277 kts 98°
2026-05-08 22:23 41.47620 9.30484 5729 ft 273 kts 99°
2026-05-08 22:23 41.47319 9.32969 5375 ft 270 kts 98°
2026-05-08 22:23 41.47086 9.35426 5020 ft 265 kts 87°
2026-05-08 22:23 41.47658 9.37687 4732 ft 258 kts 52°
2026-05-08 22:24 41.49037 9.39130 4564 ft 249 kts 29°
2026-05-08 22:24 41.50535 9.40201 4400 ft 241 kts 28°
2026-05-08 22:24 41.51994 9.41225 4245 ft 234 kts 28°
2026-05-08 22:24 41.53480 9.42023 4077 ft 229 kts
2026-05-08 22:25 41.55003 9.41665 4029 ft 220 kts 340°
2026-05-08 22:25 41.56405 9.40965 4012 ft 208 kts 342°
2026-05-08 22:25 41.57705 9.40367 4042 ft 188 kts 343°
2026-05-08 22:25 41.58919 9.39768 4040 ft 188 kts 330°
2026-05-08 22:26 41.59681 9.38382 4043 ft 191 kts 288°
2026-05-08 22:26 41.60026 9.36660 4030 ft 193 kts 285°
2026-05-08 22:26 41.60347 9.34951 4023 ft 192 kts 285°
2026-05-08 22:26 41.60690 9.33223 4017 ft 192 kts 287°
2026-05-08 22:27 41.61066 9.31509 4015 ft 192 kts 288°
2026-05-08 22:27 41.61461 9.29862 3999 ft 182 kts 290°
2026-05-08 22:27 41.61623 9.28211 3978 ft 183 kts 258°
2026-05-08 22:27 41.60991 9.26758 3691 ft 177 kts 234°
2026-05-08 22:28 41.60306 9.25451 3434 ft 165 kts 235°
2026-05-08 22:28 41.59629 9.24287 3180 ft 153 kts 230°
2026-05-08 22:28 41.58960 9.23226 2943 ft 151 kts 229°
2026-05-08 22:28 41.58250 9.22127 2712 ft 159 kts 230°
2026-05-08 22:29 41.57526 9.21011 2477 ft 156 kts 230°
2026-05-08 22:29 41.56845 9.19963 2245 ft 143 kts 229°
2026-05-08 22:29 41.56217 9.18982 2020 ft 137 kts 229°
2026-05-08 22:29 41.55600 9.18014 1808 ft 137 kts 232°
2026-05-08 22:30 41.55001 9.17031 1621 ft 136 kts 234°
2026-05-08 22:30 41.54426 9.16035 1417 ft 133 kts 230°
2026-05-08 22:30 41.53823 9.15090 1147 ft 133 kts 232°
2026-05-08 22:30 41.53224 9.14184 933 ft 128 kts 229°
2026-05-08 22:31 41.52638 9.13296 751 ft 128 kts 232°
2026-05-08 22:31 41.52054 9.12409 503 ft 130 kts 227°
2026-05-08 22:31 41.51455 9.11511 313 ft 127 kts 228°
2026-05-08 22:31 41.50867 9.10633 120 ft 125 kts 227°
2026-05-08 22:32 41.50320 9.09829 70 ft 104 kts 226°
2026-05-08 22:32 41.49955 9.09302 75 ft 55 kts 227°
2026-05-08 22:32 41.49810 9.09087 58 ft 8 kts 247°
2026-05-08 22:32 41.49790 9.09048 59 ft 4 kts 149°
2026-05-08 22:33 41.49788 9.09076 60 ft 4 kts 62°
2026-05-08 22:33 41.49808 9.09101 63 ft 4 kts 41°
2026-05-08 22:33 41.49836 9.09134 64 ft 7 kts 41°
2026-05-08 22:33 41.49894 9.09213 72 ft 18 kts 46°
2026-05-08 22:34 41.49978 9.09335 71 ft 17 kts 47°
2026-05-08 22:34 41.50057 9.09450 74 ft 16 kts 47°
2026-05-08 22:34 41.50130 9.09556 69 ft 15 kts 47°
2026-05-08 22:34 41.50192 9.09665 68 ft 13 kts 86°
2026-05-08 22:35 41.50144 9.09756 68 ft 12 kts 137°
2026-05-08 22:35 41.50081 9.09811 68 ft 10 kts 179°
2026-05-08 22:35 41.50028 9.09762 68 ft 7 kts 223°
2026-05-08 22:35 41.49989 9.09766 71 ft 6 kts 139°
2026-05-08 22:36 41.49969 9.09791 71 ft 2 kts 138°
2026-05-08 22:36 41.49967 9.09792 71 ft 0 kts 138°